Погода в Антраците

Украина / Луганская область     48°07′00″N   39°04′59″E
темп.,
°C
ветер,
м/с
пор.,
м/с
влажн.,
%
обл.,
%
осадки,
мм/ч
давл.,
гПа
погр.,
м
18 мая, вт
вт1800:00+15юз41094100 1.3 1007322
03:00+15ююз4898100 1.4 1008396
06:00+15юз3698100 0.7 1007304
09:00+17юз4585100 4.3 1008534
12:00+19ююз786790 0.4 10081211
15:00+20ююз7962100 0.5 10081560
18:00+18ююз610680 0.1 10081271
21:00+14ю36865 0.1 1009119
19 мая, ср
ср1900:00+13ююв359142 0.0 1008102
03:00+14ююв2686100 0.0 1008192
06:00+13юв3996100 1.6 1007438
09:00+14юв71297100 7.2 1007578
12:00+12юз5892100 7.2 1009514
15:00+16ююз81176100 7.8 10091250
18:00+16ююз710714 0.3 10081061
21:00+12ю511915 0.7 1010445
20 мая, чт
чт2000:00+12ю41198100 2.9 1008697
03:00+12юз71489100 3.9 1009729
06:00+12юз6129394 0.4 1010697
09:00+13юз61087100 0.5 1011729
12:00+16зюз6107098 0.1 10121527
15:00+19зюз5859100 0.1 10121755
18:00+20зсз2356100 0.0 1012751
21:00+14ю228711 0.0 101411
21 мая, пт
пт2100:00+12в1282100 0.0 101310
03:00+12в2281100 0.0 101315
06:00+13в31184100 0.0 1013275
09:00+18вюв71268100 0.0 1012477
12:00+23вюв7955100 0.0 1011927
15:00+24вюв7954100 0.0 10111173
18:00+23вюв51065100 0.0 1009681
21:00+18всв358277 0.0 100974
22 мая, сб
сб2200:00+18вюв411731 0.0 1008256
03:00+15вюв24795 0.0 100857
06:00+15всв25780 0.0 1009152
09:00+20вюв3467100 0.9 1009353
12:00+23св4462100 0.8 1008420
15:00+23юв2365100 0.8 1011628
18:00+22св477464 0.0 1009317
21:00+19ссв228474 0.0 101018